Check out our new BloomSky Weather System.

Active alerts

Houston, TX
  Details for Houston, TX Dense Fog Advisory


Thunder radar  blitzortung!


Rain radar more information rain snow radar


Visit our other weather sites:

Template documentation
and downloads

And another site



Weather Underground History page Text

Daily Summary for September 30, 2017 Units:  English    Metric   Both
« Previous Day
Next Day »
Daily Weekly Monthly Yearly Custom
  High: Low: Average:
Temperature: 88.3 °F 67.3 °F 77.3 °F
Dew Point: 67.3 °F 61.2 °F 64.4 °F
Humidity: 87 % 43 % 67 %
Wind Speed: 7.0 mph 0.0 mph 1.2 mph
Wind Gust: 9.0 mph - -
Wind:- - WSW
Pressure: 30.07 in 29.96 in -
Precipitation: 0.00 in    
Historical Graphs
 
 
Tabular Data for September 30, 2017
Time Temperature Dew Point Pressure Wind Wind Speed Wind Gust Humidity Rainfall Rate (Hourly)
00:03 76.3 °F 66.6 °F 30.03 in NE 2.0 mph 6.0 mph 72 % 0.00 in
00:08 76.1 °F 66.0 °F 30.03 in North 1.0 mph 6.0 mph 71 % 0.00 in
00:13 76.1 °F 66.0 °F 30.03 in Calm   6.0 mph 71 % 0.00 in
00:18 75.9 °F 65.8 °F 30.03 in Calm   6.0 mph 71 % 0.00 in
00:23 75.9 °F 65.8 °F 30.03 in ENE 1.0 mph 6.0 mph 71 % 0.00 in
00:28 75.7 °F 66.0 °F 30.03 in NW 2.0 mph 5.0 mph 72 % 0.00 in
00:33 75.6 °F 65.8 °F 30.03 in Calm   5.0 mph 72 % 0.00 in
00:38 75.4 °F 66.2 °F 30.03 in NNW 2.0 mph 4.0 mph 73 % 0.00 in
00:43 75.0 °F 66.6 °F 30.03 in North 1.0 mph 3.0 mph 75 % 0.00 in
00:48 74.7 °F 66.6 °F 30.04 in NNW 1.0 mph 3.0 mph 76 % 0.00 in
00:53 74.5 °F 66.7 °F 30.03 in Calm   3.0 mph 77 % 0.00 in
00:58 74.1 °F 66.4 °F 30.04 in NNW 1.0 mph 5.0 mph 77 % 0.00 in
01:03 73.9 °F 66.6 °F 30.04 in North 1.0 mph 5.0 mph 78 % 0.00 in
01:08 73.8 °F 66.4 °F 30.04 in NW 3.0 mph 5.0 mph 78 % 0.00 in
01:13 73.6 °F 66.4 °F 30.04 in North 2.0 mph 3.0 mph 78 % 0.00 in
01:18 73.4 °F 66.6 °F 30.04 in NW 1.0 mph 3.0 mph 79 % 0.00 in
01:23 73.4 °F 66.6 °F 30.04 in Calm   4.0 mph 79 % 0.00 in
01:28 73.2 °F 66.4 °F 30.03 in Calm   6.0 mph 79 % 0.00 in
01:33 73.0 °F 66.2 °F 30.03 in Calm   6.0 mph 79 % 0.00 in
01:38 72.9 °F 66.0 °F 30.03 in Calm   6.0 mph 79 % 0.00 in
01:43 72.9 °F 66.0 °F 30.04 in Calm   4.0 mph 79 % 0.00 in
01:48 72.7 °F 65.8 °F 30.03 in North 2.0 mph 3.0 mph 79 % 0.00 in
01:53 72.7 °F 65.5 °F 30.03 in NNW 1.0 mph 3.0 mph 78 % 0.00 in
01:58 72.7 °F 65.5 °F 30.03 in NW 1.0 mph 5.0 mph 78 % 0.00 in
02:04 72.7 °F 65.5 °F 30.04 in North 1.0 mph 5.0 mph 78 % 0.00 in
02:08 72.3 °F 65.1 °F 30.04 in Calm   5.0 mph 78 % 0.00 in
02:14 72.3 °F 65.5 °F 30.04 in NNW 1.0 mph 4.0 mph 79 % 0.00 in
02:19 72.1 °F 65.3 °F 30.04 in Calm   4.0 mph 79 % 0.00 in
02:24 72.1 °F 65.3 °F 30.04 in NW 2.0 mph 4.0 mph 79 % 0.00 in
02:34 72.0 °F 65.1 °F 30.04 in NW 1.0 mph 4.0 mph 79 % 0.00 in
02:39 71.8 °F 64.9 °F 30.04 in WNW 1.0 mph 4.0 mph 79 % 0.00 in
02:44 71.6 °F 64.8 °F 30.04 in Calm   4.0 mph 79 % 0.00 in
02:49 71.4 °F 64.6 °F 30.04 in Calm   4.0 mph 79 % 0.00 in
02:54 71.2 °F 64.8 °F 30.04 in Calm   2.0 mph 80 % 0.00 in
02:59 71.1 °F 64.6 °F 30.04 in Calm   2.0 mph 80 % 0.00 in
03:04 70.9 °F 64.4 °F 30.04 in Calm   2.0 mph 80 % 0.00 in
03:09 70.7 °F 64.6 °F 30.04 in Calm   2.0 mph 81 % 0.00 in
03:14 70.5 °F 64.4 °F 30.04 in Calm   2.0 mph 81 % 0.00 in
03:19 70.5 °F 64.4 °F 30.03 in Calm   2.0 mph 81 % 0.00 in
03:24 70.3 °F 64.6 °F 30.03 in Calm   2.0 mph 82 % 0.00 in
03:29 70.2 °F 64.4 °F 30.03 in Calm   2.0 mph 82 % 0.00 in
03:34 70.2 °F 64.4 °F 30.04 in Calm   2.0 mph 82 % 0.00 in
03:39 70.2 °F 64.4 °F 30.04 in Calm   1.0 mph 82 % 0.00 in
03:44 70.0 °F 64.2 °F 30.04 in Calm   1.0 mph 82 % 0.00 in
03:49 70.0 °F 63.9 °F 30.03 in North 1.0 mph 1.0 mph 81 % 0.00 in
03:54 70.0 °F 63.9 °F 30.03 in Calm   2.0 mph 81 % 0.00 in
03:59 70.2 °F 64.0 °F 30.03 in North 1.0 mph 3.0 mph 81 % 0.00 in
04:04 70.2 °F 63.7 °F 30.03 in NNW 1.0 mph 3.0 mph 80 % 0.00 in
04:09 70.2 °F 63.7 °F 30.03 in Calm   3.0 mph 80 % 0.00 in
04:14 70.2 °F 63.7 °F 30.03 in North 1.0 mph 3.0 mph 80 % 0.00 in
04:19 70.0 °F 63.9 °F 30.03 in Calm   2.0 mph 81 % 0.00 in
04:24 70.0 °F 63.9 °F 30.03 in NW 1.0 mph 2.0 mph 81 % 0.00 in
04:30 69.8 °F 64.0 °F 30.03 in Calm   2.0 mph 82 % 0.00 in
04:35 69.6 °F 63.9 °F 30.04 in NNW 1.0 mph 2.0 mph 82 % 0.00 in
04:40 69.4 °F 63.7 °F 30.03 in Calm   2.0 mph 82 % 0.00 in
04:45 69.3 °F 63.9 °F 30.03 in Calm   2.0 mph 83 % 0.00 in
04:50 69.1 °F 64.0 °F 30.03 in Calm   2.0 mph 84 % 0.00 in
04:55 68.7 °F 63.7 °F 30.03 in Calm   2.0 mph 84 % 0.00 in
05:00 68.7 °F 64.0 °F 30.03 in Calm   1.0 mph 85 % 0.00 in
05:05 68.5 °F 63.9 °F 30.04 in Calm   1.0 mph 85 % 0.00 in
05:10 68.5 °F 63.9 °F 30.03 in NNW 1.0 mph 2.0 mph 85 % 0.00 in
05:15 68.5 °F 64.2 °F 30.04 in Calm   2.0 mph 86 % 0.00 in
05:20 68.4 °F 64.0 °F 30.04 in Calm   2.0 mph 86 % 0.00 in
05:25 68.4 °F 64.0 °F 30.04 in Calm   2.0 mph 86 % 0.00 in
05:30 68.2 °F 63.9 °F 30.04 in NW 2.0 mph 2.0 mph 86 % 0.00 in
05:35 68.2 °F 64.2 °F 30.04 in Calm   2.0 mph 87 % 0.00 in
05:36 68.2 °F 64.2 °F 30.04 in Calm   2.0 mph 87 % 0.00 in
05:42 68.0 °F 64.0 °F 30.04 in Calm   3.0 mph 87 % 0.00 in
05:47 68.0 °F 63.7 °F 30.04 in Calm   3.0 mph 86 % 0.00 in
05:52 68.0 °F 63.7 °F 30.04 in Calm   3.0 mph 86 % 0.00 in
05:57 67.8 °F 63.5 °F 30.04 in Calm   2.0 mph 86 % 0.00 in
06:02 67.8 °F 63.9 °F 30.04 in Calm   2.0 mph 87 % 0.00 in
06:07 67.6 °F 63.7 °F 30.04 in Calm   1.0 mph 87 % 0.00 in
06:12 67.6 °F 63.7 °F 30.04 in Calm   1.0 mph 87 % 0.00 in
06:17 67.8 °F 63.9 °F 30.04 in Calm   2.0 mph 87 % 0.00 in
06:22 67.6 °F 63.7 °F 30.04 in NW 1.0 mph 2.0 mph 87 % 0.00 in
06:27 67.6 °F 63.7 °F 30.04 in Calm   2.0 mph 87 % 0.00 in
06:32 67.8 °F 63.5 °F 30.04 in Calm   3.0 mph 86 % 0.00 in
06:37 67.6 °F 63.3 °F 30.04 in Calm   3.0 mph 86 % 0.00 in
06:42 67.6 °F 63.7 °F 30.04 in Calm   3.0 mph 87 % 0.00 in
06:47 67.6 °F 63.7 °F 30.04 in Calm   3.0 mph 87 % 0.00 in
06:52 67.5 °F 63.5 °F 30.04 in NNW 1.0 mph 2.0 mph 87 % 0.00 in
06:57 67.5 °F 63.5 °F 30.04 in NNW 1.0 mph 2.0 mph 87 % 0.00 in
07:02 67.3 °F 63.3 °F 30.04 in NW 1.0 mph 2.0 mph 87 % 0.00 in
07:07 67.3 °F 63.3 °F 30.04 in Calm   2.0 mph 87 % 0.00 in
07:12 67.3 °F 63.3 °F 30.04 in Calm   2.0 mph 87 % 0.00 in
07:17 67.3 °F 63.3 °F 30.05 in Calm   3.0 mph 87 % 0.00 in
07:22 67.3 °F 63.0 °F 30.05 in Calm   3.0 mph 86 % 0.00 in
07:27 67.3 °F 63.0 °F 30.05 in NNW 1.0 mph 3.0 mph 86 % 0.00 in
07:32 67.3 °F 63.0 °F 30.05 in Calm   3.0 mph 86 % 0.00 in
07:37 67.3 °F 63.3 °F 30.05 in NE 1.0 mph 3.0 mph 87 % 0.00 in
07:42 67.3 °F 63.3 °F 30.05 in NNW 1.0 mph 2.0 mph 87 % 0.00 in
07:47 67.3 °F 63.3 °F 30.05 in Calm   2.0 mph 87 % 0.00 in
07:52 67.5 °F 63.5 °F 30.05 in NNW 1.0 mph 2.0 mph 87 % 0.00 in
07:57 67.8 °F 63.1 °F 30.05 in NNW 1.0 mph 4.0 mph 85 % 0.00 in
08:02 68.4 °F 63.3 °F 30.05 in Calm   4.0 mph 84 % 0.00 in
08:07 68.9 °F 63.1 °F 30.06 in Calm   4.0 mph 82 % 0.00 in
08:12 69.4 °F 63.3 °F 30.06 in WNW 1.0 mph 4.0 mph 81 % 0.00 in
08:17 70.0 °F 63.1 °F 30.06 in North 2.0 mph 3.0 mph 79 % 0.00 in
08:22 70.3 °F 63.1 °F 30.06 in NW 2.0 mph 4.0 mph 78 % 0.00 in
08:27 70.9 °F 63.0 °F 30.06 in WNW 1.0 mph 6.0 mph 76 % 0.00 in
08:32 71.1 °F 63.1 °F 30.06 in ENE 2.0 mph 6.0 mph 76 % 0.00 in
08:37 71.6 °F 63.3 °F 30.06 in NW 2.0 mph 6.0 mph 75 % 0.00 in
08:42 72.0 °F 63.1 °F 30.06 in Calm   6.0 mph 74 % 0.00 in
08:47 72.3 °F 63.5 °F 30.06 in NNW 1.0 mph 6.0 mph 74 % 0.00 in
08:52 72.7 °F 63.5 °F 30.07 in NNE 1.0 mph 6.0 mph 73 % 0.00 in
08:57 73.0 °F 63.5 °F 30.07 in ENE 3.0 mph 5.0 mph 72 % 0.00 in
09:02 73.2 °F 63.7 °F 30.07 in WNW 1.0 mph 5.0 mph 72 % 0.00 in
09:05 73.9 °F 63.9 °F 30.07 in East 2.0 mph 5.0 mph 71 % 0.00 in
09:10 74.5 °F 64.0 °F 30.07 in NW 1.0 mph 6.0 mph 70 % 0.00 in
09:15 74.3 °F 63.5 °F 30.07 in NNW 2.0 mph 7.0 mph 69 % 0.00 in
09:21 74.7 °F 63.9 °F 30.07 in Calm   7.0 mph 69 % 0.00 in
09:26 75.0 °F 63.7 °F 30.07 in NNE 2.0 mph 8.0 mph 68 % 0.00 in
09:31 75.4 °F 64.0 °F 30.07 in Calm   8.0 mph 68 % 0.00 in
09:36 75.6 °F 63.3 °F 30.07 in ENE 3.0 mph 8.0 mph 66 % 0.00 in
09:41 75.9 °F 64.2 °F 30.07 in East 3.0 mph 7.0 mph 67 % 0.00 in
09:46 75.9 °F 63.3 °F 30.07 in North 3.0 mph 7.0 mph 65 % 0.00 in
09:51 75.9 °F 63.7 °F 30.07 in NNW 3.0 mph 8.0 mph 66 % 0.00 in
09:56 76.3 °F 64.6 °F 30.07 in NNW 2.0 mph 8.0 mph 67 % 0.00 in
10:01 76.8 °F 64.6 °F 30.07 in West 1.0 mph 8.0 mph 66 % 0.00 in
10:06 77.0 °F 64.4 °F 30.07 in ENE 1.0 mph 6.0 mph 65 % 0.00 in
10:11 77.5 °F 63.9 °F 30.07 in East 1.0 mph 7.0 mph 63 % 0.00 in
10:16 78.1 °F 64.9 °F 30.07 in NNE 5.0 mph 7.0 mph 64 % 0.00 in
10:21 78.1 °F 64.4 °F 30.07 in NE 2.0 mph 7.0 mph 63 % 0.00 in
10:26 78.3 °F 64.6 °F 30.07 in NNE 2.0 mph 6.0 mph 63 % 0.00 in
10:31 78.3 °F 64.6 °F 30.07 in North 1.0 mph 7.0 mph 63 % 0.00 in
10:36 78.6 °F 64.6 °F 30.07 in NNW 4.0 mph 7.0 mph 62 % 0.00 in
10:41 79.0 °F 65.3 °F 30.07 in East 1.0 mph 7.0 mph 63 % 0.00 in
10:46 79.2 °F 65.5 °F 30.06 in North 4.0 mph 7.0 mph 63 % 0.00 in
10:51 79.3 °F 64.8 °F 30.07 in NNW 2.0 mph 7.0 mph 61 % 0.00 in
10:56 79.9 °F 65.7 °F 30.07 in NW 3.0 mph 7.0 mph 62 % 0.00 in
11:01 80.2 °F 64.6 °F 30.07 in NW 2.0 mph 6.0 mph 59 % 0.00 in
11:06 80.6 °F 66.4 °F 30.07 in ENE 1.0 mph 6.0 mph 62 % 0.00 in
11:11 81.1 °F 66.4 °F 30.07 in NW 3.0 mph 7.0 mph 61 % 0.00 in
11:16 80.8 °F 65.1 °F 30.07 in NW 1.0 mph 7.0 mph 59 % 0.00 in
11:21 81.0 °F 65.8 °F 30.07 in NE 3.0 mph 7.0 mph 60 % 0.00 in
11:26 81.3 °F 66.0 °F 30.07 in ENE 4.0 mph 6.0 mph 60 % 0.00 in
11:31 82.0 °F 67.3 °F 30.07 in NNW 3.0 mph 6.0 mph 61 % 0.00 in
11:36 82.4 °F 66.2 °F 30.06 in Calm   4.0 mph 58 % 0.00 in
11:41 82.8 °F 66.6 °F 30.06 in NE 2.0 mph 5.0 mph 58 % 0.00 in
11:46 82.8 °F 66.0 °F 30.06 in East 1.0 mph 8.0 mph 57 % 0.00 in
11:47 82.8 °F 66.0 °F 30.06 in East 2.0 mph 8.0 mph 57 % 0.00 in
11:52 83.1 °F 66.4 °F 30.06 in NW 2.0 mph 8.0 mph 57 % 0.00 in
11:57 83.1 °F 66.7 °F 30.06 in North 1.0 mph 9.0 mph 58 % 0.00 in
12:02 83.7 °F 67.3 °F 30.06 in North 2.0 mph 9.0 mph 58 % 0.00 in
12:07 84.2 °F 67.3 °F 30.06 in Calm   9.0 mph 57 % 0.00 in
12:12 84.7 °F 66.7 °F 30.06 in Calm   4.0 mph 55 % 0.00 in
12:17 84.7 °F 65.7 °F 30.06 in NW 1.0 mph 4.0 mph 53 % 0.00 in
12:22 84.4 °F 65.3 °F 30.06 in ENE 3.0 mph 6.0 mph 53 % 0.00 in
12:27 84.4 °F 66.4 °F 30.06 in West 2.0 mph 6.0 mph 55 % 0.00 in
12:32 84.6 °F 66.6 °F 30.06 in Calm   6.0 mph 55 % 0.00 in
12:37 84.7 °F 65.1 °F 30.06 in NW 5.0 mph 6.0 mph 52 % 0.00 in
12:42 84.9 °F 65.3 °F 30.05 in ENE 2.0 mph 7.0 mph 52 % 0.00 in
12:47 85.3 °F 65.1 °F 30.05 in West 2.0 mph 7.0 mph 51 % 0.00 in
12:52 85.6 °F 65.5 °F 30.04 in NNW 3.0 mph 7.0 mph 51 % 0.00 in
12:58 85.8 °F 66.2 °F 30.04 in North 3.0 mph 6.0 mph 52 % 0.00 in
13:03 86.0 °F 65.1 °F 30.04 in NW 1.0 mph 6.0 mph 50 % 0.00 in
13:08 86.2 °F 65.8 °F 30.04 in ENE 2.0 mph 7.0 mph 51 % 0.00 in
13:13 86.0 °F 63.5 °F 30.04 in ENE 4.0 mph 7.0 mph 47 % 0.00 in
13:18 85.6 °F 64.9 °F 30.04 in NNE 2.0 mph 8.0 mph 50 % 0.00 in
13:23 85.6 °F 64.2 °F 30.04 in NNW 7.0 mph 8.0 mph 49 % 0.00 in
13:28 85.6 °F 65.5 °F 30.03 in NW 6.0 mph 8.0 mph 51 % 0.00 in
13:33 85.5 °F 64.8 °F 30.03 in West 2.0 mph 8.0 mph 50 % 0.00 in
13:38 86.0 °F 65.1 °F 30.03 in NNW 3.0 mph 8.0 mph 50 % 0.00 in
13:43 86.4 °F 64.9 °F 30.02 in NNW 2.0 mph 8.0 mph 49 % 0.00 in
13:48 86.4 °F 66.0 °F 30.02 in Calm   8.0 mph 51 % 0.00 in
13:53 86.7 °F 66.4 °F 30.02 in WNW 4.0 mph 7.0 mph 51 % 0.00 in
13:58 86.7 °F 65.8 °F 30.01 in North 4.0 mph 9.0 mph 50 % 0.00 in
14:03 86.5 °F 65.7 °F 30.01 in NNW 2.0 mph 9.0 mph 50 % 0.00 in
14:08 86.4 °F 63.7 °F 30.01 in WNW 1.0 mph 9.0 mph 47 % 0.00 in
14:13 86.4 °F 64.9 °F 30.00 in WNW 2.0 mph 7.0 mph 49 % 0.00 in
14:18 86.7 °F 65.3 °F 30.00 in East 1.0 mph 7.0 mph 49 % 0.00 in
14:23 87.3 °F 65.8 °F 30.00 in North 1.0 mph 7.0 mph 49 % 0.00 in
14:28 87.3 °F 66.4 °F 29.99 in North 1.0 mph 7.0 mph 50 % 0.00 in
14:29 87.3 °F 64.6 °F 29.99 in NNE 3.0 mph 7.0 mph 47 % 0.00 in
14:34 87.4 °F 65.3 °F 29.99 in SW 1.0 mph 8.0 mph 48 % 0.00 in
14:39 87.4 °F 64.0 °F 29.99 in WNW 1.0 mph 8.0 mph 46 % 0.00 in
14:44 87.6 °F 64.9 °F 29.99 in WNW 1.0 mph 8.0 mph 47 % 0.00 in
14:54 87.6 °F 63.7 °F 29.98 in North 4.0 mph 7.0 mph 45 % 0.00 in
14:59 87.4 °F 63.5 °F 29.98 in ENE 1.0 mph 8.0 mph 45 % 0.00 in
15:04 87.3 °F 63.3 °F 29.98 in NW 3.0 mph 8.0 mph 45 % 0.00 in
15:09 87.4 °F 64.0 °F 29.98 in North 1.0 mph 8.0 mph 46 % 0.00 in
15:14 87.8 °F 64.4 °F 29.98 in Calm   8.0 mph 46 % 0.00 in
15:19 88.0 °F 64.6 °F 29.98 in ENE 4.0 mph 8.0 mph 46 % 0.00 in
15:24 87.8 °F 65.1 °F 29.98 in NNW 2.0 mph 7.0 mph 47 % 0.00 in
15:29 88.2 °F 64.8 °F 29.98 in NW 1.0 mph 6.0 mph 46 % 0.00 in
15:34 87.8 °F 64.4 °F 29.97 in NW 3.0 mph 6.0 mph 46 % 0.00 in
15:39 87.4 °F 63.5 °F 29.98 in Calm   6.0 mph 45 % 0.00 in
15:44 87.6 °F 66.0 °F 29.97 in NW 3.0 mph 6.0 mph 49 % 0.00 in
15:49 88.0 °F 64.6 °F 29.97 in North 2.0 mph 6.0 mph 46 % 0.00 in
15:54 88.0 °F 65.3 °F 29.97 in ESE 1.0 mph 6.0 mph 47 % 0.00 in
15:59 88.0 °F 64.0 °F 29.97 in NW 7.0 mph 7.0 mph 45 % 0.00 in
16:04 88.0 °F 64.0 °F 29.97 in East 2.0 mph 8.0 mph 45 % 0.00 in
16:09 88.3 °F 64.2 °F 29.97 in NE 2.0 mph 8.0 mph 45 % 0.00 in
16:14 87.8 °F 63.1 °F 29.97 in WNW 3.0 mph 8.0 mph 44 % 0.00 in
16:19 87.6 °F 64.9 °F 29.97 in WNW 2.0 mph 7.0 mph 47 % 0.00 in
16:24 87.6 °F 63.0 °F 29.97 in NNW 5.0 mph 9.0 mph 44 % 0.00 in
16:29 87.1 °F 63.1 °F 29.97 in NW 6.0 mph 9.0 mph 45 % 0.00 in
16:34 87.1 °F 62.6 °F 29.97 in NE 6.0 mph 9.0 mph 44 % 0.00 in
16:39 86.7 °F 62.8 °F 29.96 in NNW 4.0 mph 9.0 mph 45 % 0.00 in
16:44 87.1 °F 62.6 °F 29.96 in NE 2.0 mph 9.0 mph 44 % 0.00 in
16:49 87.1 °F 62.6 °F 29.96 in NW 3.0 mph 7.0 mph 44 % 0.00 in
16:54 86.9 °F 63.0 °F 29.96 in NNW 2.0 mph 7.0 mph 45 % 0.00 in
16:59 87.1 °F 62.6 °F 29.96 in NNW 2.0 mph 9.0 mph 44 % 0.00 in
17:05 87.1 °F 61.9 °F 29.97 in North 1.0 mph 9.0 mph 43 % 0.00 in
17:10 87.1 °F 62.6 °F 29.97 in NNW 2.0 mph 9.0 mph 44 % 0.00 in
17:15 87.1 °F 61.9 °F 29.97 in WNW 1.0 mph 6.0 mph 43 % 0.00 in
17:20 86.7 °F 61.5 °F 29.97 in Calm   6.0 mph 43 % 0.00 in
17:25 86.7 °F 61.5 °F 29.97 in ENE 4.0 mph 6.0 mph 43 % 0.00 in
17:30 86.5 °F 62.1 °F 29.97 in NNE 4.0 mph 5.0 mph 44 % 0.00 in
17:35 86.5 °F 62.1 °F 29.97 in Calm   6.0 mph 44 % 0.00 in
17:40 86.5 °F 61.3 °F 29.97 in WNW 2.0 mph 6.0 mph 43 % 0.00 in
17:45 86.4 °F 61.9 °F 29.97 in ENE 2.0 mph 6.0 mph 44 % 0.00 in
17:50 86.2 °F 61.7 °F 29.97 in North 2.0 mph 5.0 mph 44 % 0.00 in
17:55 85.6 °F 62.4 °F 29.97 in NNW 4.0 mph 5.0 mph 46 % 0.00 in
18:00 85.5 °F 62.2 °F 29.97 in NNW 1.0 mph 6.0 mph 46 % 0.00 in
18:05 85.3 °F 62.2 °F 29.97 in ENE 2.0 mph 6.0 mph 46 % 0.00 in
18:10 84.7 °F 62.2 °F 29.97 in NNW 3.0 mph 6.0 mph 47 % 0.00 in
18:15 84.6 °F 61.5 °F 29.97 in WNW 1.0 mph 7.0 mph 46 % 0.00 in
18:20 84.2 °F 61.2 °F 29.97 in NNW 3.0 mph 7.0 mph 46 % 0.00 in
18:25 84.0 °F 61.7 °F 29.97 in NNE 1.0 mph 7.0 mph 47 % 0.00 in
18:30 83.8 °F 62.6 °F 29.97 in NNW 1.0 mph 6.0 mph 49 % 0.00 in
18:35 83.7 °F 63.0 °F 29.97 in Calm   6.0 mph 50 % 0.00 in
18:40 83.5 °F 63.0 °F 29.97 in NNW 2.0 mph 5.0 mph 50 % 0.00 in
18:45 83.1 °F 63.1 °F 29.97 in WNW 4.0 mph 5.0 mph 51 % 0.00 in
18:50 82.8 °F 63.3 °F 29.97 in NNW 3.0 mph 5.0 mph 52 % 0.00 in
18:55 82.4 °F 63.0 °F 29.98 in North 1.0 mph 5.0 mph 52 % 0.00 in
19:00 82.0 °F 63.1 °F 29.98 in NNE 2.0 mph 5.0 mph 53 % 0.00 in
19:05 81.7 °F 63.5 °F 29.98 in Calm   3.0 mph 54 % 0.00 in
19:10 81.3 °F 63.7 °F 29.98 in Calm   2.0 mph 55 % 0.00 in
19:15 81.0 °F 63.9 °F 29.98 in Calm   2.0 mph 56 % 0.00 in
19:21 80.8 °F 64.0 °F 29.98 in Calm   2.0 mph 57 % 0.00 in
19:26 80.4 °F 63.9 °F 29.98 in Calm   2.0 mph 57 % 0.00 in
19:31 80.1 °F 63.9 °F 29.98 in Calm   1.0 mph 58 % 0.00 in
19:36 79.7 °F 64.0 °F 29.98 in Calm   1.0 mph 59 % 0.00 in
19:41 79.5 °F 64.4 °F 29.98 in Calm   1.0 mph 60 % 0.00 in
19:46 79.2 °F 64.0 °F 29.98 in Calm   1.0 mph 60 % 0.00 in
19:51 79.0 °F 64.4 °F 29.98 in Calm   1.0 mph 61 % 0.00 in
19:56 78.6 °F 64.6 °F 29.98 in Calm   1.0 mph 62 % 0.00 in
20:01 78.4 °F 64.4 °F 29.99 in Calm   1.0 mph 62 % 0.00 in
20:06 78.1 °F 64.4 °F 29.99 in Calm   1.0 mph 63 % 0.00 in
20:11 77.7 °F 64.6 °F 29.99 in Calm   1.0 mph 64 % 0.00 in
20:16 77.5 °F 64.4 °F 29.99 in Calm     64 % 0.00 in
20:21 77.4 °F 64.8 °F 29.99 in Calm     65 % 0.00 in
20:26 77.2 °F 64.6 °F 29.99 in Calm   1.0 mph 65 % 0.00 in
20:31 77.0 °F 64.8 °F 29.99 in Calm   1.0 mph 66 % 0.00 in
20:36 76.8 °F 64.6 °F 29.99 in Calm   1.0 mph 66 % 0.00 in
20:41 76.6 °F 64.9 °F 29.99 in Calm   1.0 mph 67 % 0.00 in
20:46 76.5 °F 65.1 °F 29.99 in Calm   1.0 mph 68 % 0.00 in
20:51 76.1 °F 64.8 °F 29.99 in Calm   1.0 mph 68 % 0.00 in
20:56 75.9 °F 64.6 °F 29.99 in Calm     68 % 0.00 in
20:59 75.7 °F 64.8 °F 29.99 in Calm     69 % 0.00 in
21:02 75.6 °F 64.8 °F 29.99 in Calm     69 % 0.00 in
21:07 75.4 °F 64.9 °F 29.99 in Calm     70 % 0.00 in
21:12 75.4 °F 64.9 °F 30.00 in Calm   1.0 mph 70 % 0.00 in
21:17 75.4 °F 64.9 °F 30.00 in Calm   1.0 mph 70 % 0.00 in
21:22 75.4 °F 64.9 °F 30.00 in Calm   1.0 mph 70 % 0.00 in
21:27 75.4 °F 64.9 °F 30.00 in Calm   1.0 mph 70 % 0.00 in
21:32 75.2 °F 64.8 °F 30.00 in Calm   1.0 mph 70 % 0.00 in
21:37 75.0 °F 64.9 °F 30.00 in Calm   2.0 mph 71 % 0.00 in
21:42 75.2 °F 65.1 °F 30.01 in Calm   2.0 mph 71 % 0.00 in
21:47 75.0 °F 64.9 °F 30.01 in Calm   2.0 mph 71 % 0.00 in
21:52 75.0 °F 64.9 °F 30.00 in Calm   1.0 mph 71 % 0.00 in
21:57 74.8 °F 65.1 °F 30.01 in Calm   1.0 mph 72 % 0.00 in
22:02 74.8 °F 65.1 °F 30.01 in NNW 1.0 mph 1.0 mph 72 % 0.00 in
22:07 75.0 °F 65.3 °F 30.01 in North 2.0 mph 2.0 mph 72 % 0.00 in
22:12 75.0 °F 65.3 °F 30.01 in Calm   2.0 mph 72 % 0.00 in
22:17 75.0 °F 65.3 °F 30.01 in Calm   4.0 mph 72 % 0.00 in
22:22 75.0 °F 65.3 °F 30.01 in NW 1.0 mph 4.0 mph 72 % 0.00 in
22:27 75.0 °F 65.3 °F 30.01 in Calm   4.0 mph 72 % 0.00 in
22:32 75.0 °F 65.3 °F 30.01 in ENE 2.0 mph 2.0 mph 72 % 0.00 in
22:37 75.0 °F 65.8 °F 30.01 in Calm   2.0 mph 73 % 0.00 in
22:42 74.8 °F 65.7 °F 30.01 in Calm   2.0 mph 73 % 0.00 in
22:47 74.7 °F 65.5 °F 30.01 in Calm   2.0 mph 73 % 0.00 in
22:52 74.5 °F 65.3 °F 30.01 in Calm   2.0 mph 73 % 0.00 in
22:57 74.5 °F 65.7 °F 30.01 in Calm   2.0 mph 74 % 0.00 in
23:02 74.3 °F 65.5 °F 30.01 in Calm   1.0 mph 74 % 0.00 in
23:07 74.1 °F 65.3 °F 30.01 in Calm   1.0 mph 74 % 0.00 in
23:12 73.9 °F 65.1 °F 30.01 in Calm   1.0 mph 74 % 0.00 in
23:17 73.9 °F 65.1 °F 30.01 in Calm   1.0 mph 74 % 0.00 in
23:22 73.8 °F 64.9 °F 30.01 in Calm   1.0 mph 74 % 0.00 in
23:27 73.8 °F 65.3 °F 30.01 in Calm   2.0 mph 75 % 0.00 in
23:32 73.6 °F 65.1 °F 30.01 in Calm   2.0 mph 75 % 0.00 in
23:37 73.6 °F 65.1 °F 30.01 in Calm   2.0 mph 75 % 0.00 in
23:42 73.2 °F 64.8 °F 30.01 in Calm   1.0 mph 75 % 0.00 in
23:47 73.0 °F 64.9 °F 30.00 in Calm   1.0 mph 76 % 0.00 in
23:52 72.9 °F 64.8 °F 30.00 in Calm   1.0 mph 76 % 0.00 in
23:57 72.7 °F 64.8 °F 30.00 in Calm   1.0 mph 76 % 0.00 in
Spring, Texas: Villages of Bridgestone
Compliments of Weather Underground - 2.75 mb

Script developed by  Jim McMurry - jmcmurry@mwt.net Adapted for the template by  Wim van der Kuil - Leuven-Template.eu

You find our weather info also at:

UK Metoffice

WeatherCloud

Weather Underground

Mid-South Weather Network

AWEKAS

Citizen Weather Observer Program (CWOP)

HAMweather, WeatherForYou, PWS Weather

Equipment we use:

Weather-station
Davis Vantage Vue

Weather-program
Meteohub

Weather-server
Debian 7.9 x86 (Guest)

Provider
DreamHost

Davis Vantage Vue

Meteohub

Debian 7.9 x86 (Guest)

DreamHost